This is the latest recevied weather packets stored in our database for station/object N0HOT. If no packets are shown the sender has not sent any weather packets the latest 10 day(s).
| Time | Temp. | Humidity | Pressure | Rain* | Wind** | Luminosity | Snow |
|---|---|---|---|---|---|---|---|
| 1788303211 | 27.22° C | 67% | 1013.2 hPa | 0 mm | - | 6 W/m² | - |
| 1788302906 | 27.78° C | 65% | 1012.8 hPa | 0 mm | - | 6 W/m² | - |
| 1788302603 | 27.78° C | 67% | 1013.6 hPa | 0 mm | - | 10 W/m² | - |
| 1788302299 | 27.78° C | 68% | 1013.9 hPa | 0 mm | - | 9 W/m² | - |
| 1788301994 | 27.78° C | 67% | 1013.2 hPa | 0 mm | - | 11 W/m² | - |
| 1788301689 | 27.78° C | 67% | 1013.2 hPa | 0 mm | - | 11 W/m² | - |
| 1788301386 | 27.78° C | 65% | 1012.5 hPa | 0 mm | - | 33 W/m² | - |
| 1788301081 | 27.78° C | 64% | 1012.2 hPa | 0 mm | - | 85 W/m² | - |
| 1788300771 | 28.33° C | 65% | 1012.2 hPa | 0 mm | - | 106 W/m² | - |
| 1788300470 | 28.33° C | 65% | 1012.2 hPa | 0 mm | - | 52 W/m² | - |
| 1788300170 | 28.89° C | 66% | 1011.5 hPa | 0 mm | - | 49 W/m² | - |
| 1788299869 | 29.44° C | 61% | 1012.2 hPa | 0 mm | - | 68 W/m² | - |
| 1788299568 | 30° C | 63% | 1012.8 hPa | 0 mm | - | 35 W/m² | - |
| 1788299267 | 30.56° C | 62% | 1012.5 hPa | 0 mm | - | 46 W/m² | - |
| 1788298966 | 31.11° C | 60% | 1012.5 hPa | 0 mm | - | 60 W/m² | - |
| 1788298660 | 31.67° C | 58% | 1012.5 hPa | 0 mm | - | 64 W/m² | - |
| 1788298355 | 32.22° C | 56% | 1012.2 hPa | 0 mm | - | 60 W/m² | - |
| 1788298055 | 32.78° C | 52% | 1012.2 hPa | 0 mm | - | 110 W/m² | - |
| 1788297751 | 32.78° C | 50% | 1012.2 hPa | 0 mm | - | 103 W/m² | - |
| 1788297446 | 33.33° C | 49% | 1012.2 hPa | 0 mm | - | 141 W/m² | - |
| 1788297142 | 33.33° C | 47% | 1012.2 hPa | 0 mm | - | 172 W/m² | - |
| 1788296838 | 33.89° C | 48% | 1012.5 hPa | 0 mm | - | 175 W/m² | - |
| 1788296533 | 33.89° C | 46% | 1012.5 hPa | 0 mm | - | 333 W/m² | - |
| 1788296229 | 33.33° C | 43% | 1012.5 hPa | 0 mm | - | 432 W/m² | - |
| 1788295924 | 33.33° C | 44% | 1012.5 hPa | 0 mm | - | 461 W/m² | - |
* Rain latest hour (hover to see other rain measurements)
** Current wind speed in m/s (hover to see current wind gust speed)